Seminole, TX

11:05 AM CST on December 03, 2016 (GMT -0600)
Seminole

Weather History for KGNC - December, 2012

Change the Weather History Date:

Thursday, December 6, 2012

  Actual Average (KHOB) Record (KHOB)
Temperature  
Mean Temperature 60 °F -  
Max Temperature 79 °F 57 °F 77 °F (2012)
Min Temperature 40 °F 31 °F 10 °F (1950)
Degree Days  
Heating Degree Days 6    
Growing Degree Days 10 (Base 50)    
Moisture  
Dew Point 25 °F    
Average Humidity 28    
Maximum Humidity 69    
Minimum Humidity 12    
Precipitation  
Precipitation 0.00 in - - ()
Sea Level Pressure  
Sea Level Pressure 29.88 in    
Wind  
Wind Speed 7 mph (NW)    
Max Wind Speed 20 mph    
Max Gust Speed 24 mph    
Visibility 10 miles    
Events      
Averages and records for this station are not official NWS values.
T = Trace of Precipitation, MM = Missing Value Source: NWS Daily Summary

Daily Weather History Graph

Daily Weather History Graph

Search for Another Location

Airport or City:

Trip Planner

Search our weather history database for the weather conditions in past years. The results will help you decide how hot, cold, wet, or windy it might be!

Date:

Astronomy

Dec. 06, 2012 Rise Set
Actual Time 7:39 AM CST 5:44 PM CST
Civil Twilight 7:12 AM CST 6:11 PM CST
Nautical Twilight 6:41 AM CST 6:42 PM CST
Astronomical Twilight 6:11 AM CST 7:12 PM CST
Moon 12:19 AM CST (12/6) 12:51 PM CST (12/6)
Length of Visible Light 10h 59m
Length of Day
10h 05m
Waning Gibbous, 49% of the Moon is Illuminated
Dec 6
Waning Gibbous
Dec 13
New
Dec 19
First Quarter
Dec 28
Full
Jan 4
Last Quarter

Hourly Weather History & Observations

Time (CST) Temp. Windchill Dew Point Humidity Pressure Visibility Wind Dir Wind Speed Gust Speed Precip Events Conditions
7:35 AM 41.2 °F 36.0 °F 31.1 °F 67% 29.93 in 10.0 mi West 8.1 mph - N/A   Clear
7:55 AM 41.0 °F - 31.1 °F 68% 29.94 in 10.0 mi Calm Calm - N/A   Clear
8:15 AM 40.6 °F - 31.1 °F 69% 29.93 in 10.0 mi Calm Calm - N/A   Clear
8:35 AM 42.3 °F 37.9 °F 31.8 °F 67% 29.93 in 10.0 mi WNW 6.9 mph - N/A   Clear
8:55 AM 44.8 °F 40.4 °F 32.0 °F 61% 29.93 in 10.0 mi WNW 8.1 mph - N/A   Clear
9:15 AM 49.1 °F - 32.0 °F 52% 29.93 in 10.0 mi WNW 8.1 mph - N/A   Clear
9:35 AM 52.7 °F - 31.6 °F 45% 29.93 in 10.0 mi WNW 11.5 mph - N/A   Clear
9:55 AM 56.5 °F - 30.7 °F 38% 29.93 in 10.0 mi Calm Calm - N/A   Clear
10:15 AM 58.8 °F - 29.7 °F 33% 29.93 in 10.0 mi West 10.4 mph - N/A   Clear
10:35 AM 61.5 °F - 28.9 °F 29% 29.93 in 10.0 mi West 11.5 mph - N/A   Clear
10:55 AM 64.4 °F - 28.6 °F 26% 29.92 in 10.0 mi West 11.5 mph - N/A   Clear
11:15 AM 68.5 °F - 26.8 °F 21% 29.91 in 10.0 mi West 12.7 mph - N/A   Clear
11:35 AM 72.1 °F - 24.4 °F 17% 29.90 in 10.0 mi WNW 16.1 mph 20.7 mph N/A   Clear
11:55 AM 74.1 °F - 24.4 °F 16% 29.90 in 10.0 mi WNW 15.0 mph - N/A   Clear
12:15 PM 76.5 °F - 23.7 °F 14% 29.89 in 10.0 mi WNW 16.1 mph 21.9 mph N/A   Clear
12:35 PM 77.5 °F - 23.4 °F 13% 29.88 in 10.0 mi WNW 19.6 mph 24.2 mph N/A   Clear
12:55 PM 78.3 °F - 22.8 °F 13% 29.87 in 10.0 mi NW 15.0 mph 20.7 mph N/A   Clear
1:15 PM 79.0 °F - 22.3 °F 12% 29.86 in 10.0 mi WNW 15.0 mph 20.7 mph N/A   Clear
1:35 PM 79.2 °F - 22.1 °F 12% 29.85 in 10.0 mi NW 15.0 mph 18.4 mph N/A   Clear
1:55 PM 79.2 °F - 22.5 °F 12% 29.85 in 10.0 mi NNW 15.0 mph 18.4 mph N/A   Clear
2:15 PM 78.4 °F - 22.1 °F 12% 29.84 in 10.0 mi WNW 11.5 mph - N/A   Clear
2:35 PM 79.2 °F - 22.1 °F 12% 29.84 in 10.0 mi NW 13.8 mph - N/A   Clear
2:55 PM 79.2 °F - 21.7 °F 12% 29.84 in 10.0 mi NNW 15.0 mph 18.4 mph N/A   Clear
3:15 PM 79.2 °F - 22.5 °F 12% 29.84 in 10.0 mi NW 15.0 mph - N/A   Clear
3:35 PM 78.8 °F - 22.3 °F 12% 29.84 in 10.0 mi NNW 10.4 mph - N/A   Clear
3:55 PM 78.1 °F - 21.9 °F 12% 29.84 in 10.0 mi NW 11.5 mph - N/A   Clear
4:15 PM 77.7 °F - 21.6 °F 12% 29.84 in 10.0 mi NW 10.4 mph - N/A   Clear
4:35 PM 77.0 °F - 21.7 °F 13% 29.84 in 10.0 mi NNW 9.2 mph - N/A   Clear
4:55 PM 75.9 °F - 21.7 °F 13% 29.84 in 10.0 mi North 9.2 mph - N/A   Clear
5:15 PM 74.5 °F - 21.9 °F 14% 29.84 in 10.0 mi North 5.8 mph - N/A   Clear
5:35 PM 71.4 °F - 21.7 °F 15% 29.84 in 10.0 mi Calm Calm - N/A   Clear
5:55 PM 68.7 °F - 21.6 °F 17% 29.85 in 10.0 mi Calm Calm - N/A   Clear
6:15 PM 66.2 °F - 21.7 °F 18% 29.85 in 10.0 mi Calm Calm - N/A   Clear
6:35 PM 64.4 °F - 22.1 °F 20% 29.86 in 10.0 mi Calm Calm - N/A   Clear
6:55 PM 62.4 °F - 21.7 °F 21% 29.86 in 10.0 mi Calm Calm - N/A   Clear
7:15 PM 59.7 °F - 21.4 °F 23% 29.87 in 10.0 mi Calm Calm - N/A   Clear
7:35 PM 58.3 °F - 21.4 °F 24% 29.88 in 10.0 mi Calm Calm - N/A   Clear
7:55 PM 59.0 °F - 21.9 °F 24% 29.88 in 10.0 mi Calm Calm - N/A   Clear
8:35 PM 56.7 °F - 23.9 °F 28% 29.89 in 10.0 mi NNE 5.8 mph - N/A   Clear
8:55 PM 54.9 °F - 24.6 °F 31% 29.89 in 10.0 mi Calm Calm - N/A   Clear
9:15 PM 53.2 °F - 24.8 °F 33% 29.89 in 10.0 mi Calm Calm - N/A   Clear
9:35 PM 51.1 °F - 24.6 °F 36% 29.90 in 10.0 mi Calm Calm - N/A   Clear
9:55 PM 50.2 °F - 24.8 °F 37% 29.90 in 10.0 mi Calm Calm - N/A   Clear
10:15 PM 50.5 °F - 25.2 °F 37% 29.90 in 10.0 mi NE 6.9 mph - N/A   Clear
10:35 PM 50.2 °F - 26.2 °F 39% 29.90 in 10.0 mi Calm Calm - N/A   Clear
10:55 PM 49.3 °F - 26.6 °F 41% 29.90 in 10.0 mi Calm Calm - N/A   Clear
11:15 PM 48.4 °F - 26.4 °F 42% 29.91 in 10.0 mi Calm Calm - N/A   Clear
11:35 PM 49.3 °F - 26.6 °F 41% 29.91 in 10.0 mi Calm Calm - N/A   Clear
11:55 PM 48.2 °F - 26.8 °F 43% 29.91 in 10.0 mi Calm Calm - N/A   Clear